| time (UTC) | temp F | wind direction | speed MPH | gust MPH | rain 1hr in | rain 24hr in | rain mn in | humidity % | barometer mb |
| 20260903140055 | 50 | 200 | 8.0 | 13.0 | 0.00 | 0.28 | 0.01 | 74 | 1007.3 |
| 20260903134601 | 50 | 199 | 8.0 | 11.0 | 0.00 | 0.28 | 0.01 | 73 | 1007.2 |
| 20260903133105 | 50 | 209 | 8.0 | 13.0 | 0.01 | 0.28 | 0.01 | 72 | 1007.1 |
| 20260903131548 | 49 | 204 | 7.0 | 11.0 | 0.01 | 0.28 | 0.01 | 73 | 1007.1 |
| 20260903130124 | 49 | 211 | 5.0 | 9.0 | 0.01 | 0.28 | 0.01 | 73 | 1006.9 |
| 20260903124555 | 49 | 214 | 6.0 | 9.0 | 0.01 | 0.28 | 0.01 | 73 | 1006.6 |
| 20260903123048 | 49 | 200 | 4.0 | 8.0 | 0.00 | 0.27 | 0.00 | 73 | 1006.4 |
| 20260903121542 | 48 | 205 | 4.0 | 8.0 | 0.00 | 0.27 | 0.00 | 74 | 1006.6 |
| 20260903120051 | 48 | 189 | 3.0 | 6.0 | 0.00 | 0.27 | 0.00 | 75 | 1006.7 |
| 20260903114552 | 48 | 188 | 4.0 | 7.0 | 0.00 | 0.27 | 0.00 | 75 | 1006.8 |
| 20260903113045 | 48 | 159 | 4.0 | 9.0 | 0.00 | 0.27 | 0.00 | 76 | 1006.7 |
| 20260903111554 | 48 | 160 | 6.0 | 9.0 | 0.00 | 0.27 | 0.00 | 76 | 1006.9 |
| 20260903110053 | 48 | 144 | 5.0 | 9.0 | 0.00 | 0.27 | 0.00 | 75 | 1006.9 |
| 20260903104545 | 49 | 194 | 3.0 | 7.0 | 0.00 | 0.27 | 0.00 | 74 | 1006.9 |
| 20260903103053 | 49 | 173 | 3.0 | 8.0 | 0.00 | 0.27 | 0.00 | 75 | 1006.7 |
| 20260903101553 | 50 | 155 | 8.0 | 12.0 | 0.00 | 0.27 | 0.00 | 74 | 1006.8 |
| 20260903100046 | 51 | 175 | 4.0 | 7.0 | 0.00 | 0.27 | 0.00 | 73 | 1006.7 |
| 20260903094553 | 51 | 183 | 3.0 | 6.0 | 0.00 | 0.27 | 0.00 | 74 | 1006.6 |
| 20260903093043 | 51 | 196 | 4.0 | 9.0 | 0.00 | 0.27 | 0.00 | 74 | 1006.5 |
| 20260903091555 | 52 | 190 | 5.0 | 9.0 | 0.00 | 0.27 | 0.00 | 74 | 1006.4 |
| 20260903090058 | 53 | 195 | 2.0 | 6.0 | 0.00 | 0.27 | 0.00 | 74 | 1006.2 |
| 20260903084545 | 53 | 191 | 4.0 | 9.0 | 0.00 | 0.27 | 0.00 | 75 | 1006.1 |
| 20260903083055 | 53 | 197 | 7.0 | 10.0 | 0.00 | 0.27 | 0.00 | 75 | 1006.0 |
| 20260903081549 | 52 | 186 | 3.0 | 7.0 | 0.00 | 0.27 | 0.00 | 76 | 1006.0 |
| 20260903080047 | 52 | 185 | 3.0 | 7.0 | 0.00 | 0.27 | 0.00 | 78 | 1006.2 |
| 20260903074602 | 52 | 195 | 5.0 | 8.0 | 0.00 | 0.27 | 0.00 | 78 | 1006.0 |
| 20260903073102 | 52 | 202 | 5.0 | 7.0 | 0.00 | 0.27 | 0.00 | 78 | 1005.9 |
| 20260903071613 | 52 | 208 | 7.0 | 12.0 | 0.00 | 0.27 | 0.00 | 78 | 1005.8 |
| 20260903070046 | 52 | 200 | 6.0 | 8.0 | 0.00 | 0.27 | 0.00 | 79 | 1005.7 |
| 20260903064549 | 53 | 199 | 6.0 | 9.0 | 0.00 | 0.27 | 0.00 | 79 | 1005.8 |
| 20260903063056 | 52 | 209 | 7.0 | 14.0 | 0.00 | 0.27 | 0.00 | 79 | 1005.7 |
| 20260903061547 | 52 | 213 | 9.0 | 14.0 | 0.00 | 0.27 | 0.00 | 79 | 1005.9 |
| 20260903060111 | 52 | 208 | 8.0 | 14.0 | 0.01 | 0.27 | 0.00 | 80 | 1006.0 |
| 20260903054542 | 52 | 215 | 9.0 | 15.0 | 0.02 | 0.27 | 0.27 | 80 | 1006.2 |
| 20260903053051 | 52 | 215 | 11.0 | 18.0 | 0.03 | 0.27 | 0.27 | 79 | 1006.1 |
| 20260903051600 | 52 | 211 | 13.0 | 19.0 | 0.06 | 0.27 | 0.27 | 78 | 1006.3 |
| 20260903050053 | 53 | 209 | 13.0 | 22.0 | 0.06 | 0.26 | 0.26 | 77 | 1006.5 |
| 20260903044547 | 53 | 219 | 16.0 | 23.0 | 0.05 | 0.25 | 0.25 | 74 | 1006.5 |
| 20260903043047 | 53 | 205 | 9.0 | 15.0 | 0.04 | 0.24 | 0.24 | 74 | 1006.3 |
| 20260903041543 | 55 | 211 | 9.0 | 18.0 | 0.01 | 0.21 | 0.21 | 70 | 1006.3 |
| 20260903040101 | 54 | 223 | 9.0 | 14.0 | 0.00 | 0.20 | 0.20 | 68 | 1006.4 |
| 20260903034546 | 54 | 215 | 9.0 | 15.0 | 0.00 | 0.20 | 0.20 | 68 | 1006.4 |
| 20260903033042 | 53 | 227 | 8.0 | 12.0 | 0.00 | 0.20 | 0.20 | 69 | 1006.4 |
| 20260903031543 | 53 | 213 | 10.0 | 15.0 | 0.00 | 0.20 | 0.20 | 69 | 1006.5 |
| 20260903030049 | 53 | 194 | 9.0 | 14.0 | 0.00 | 0.20 | 0.20 | 68 | 1006.5 |
| 20260903024548 | 53 | 230 | 11.0 | 17.0 | 0.00 | 0.20 | 0.20 | 68 | 1006.1 |
| 20260903023053 | 53 | 217 | 12.0 | 17.0 | 0.00 | 0.20 | 0.20 | 68 | 1006.3 |
| 20260903021542 | 54 | 206 | 11.0 | 14.0 | 0.00 | 0.20 | 0.20 | 69 | 1006.8 |
| 20260903020051 | 54 | 205 | 12.0 | 16.0 | 0.00 | 0.20 | 0.20 | 70 | 1006.8 |
| 20260903014600 | 55 | 196 | 10.0 | 16.0 | 0.00 | 0.20 | 0.20 | 70 | 1006.6 |
| 20260903013054 | 56 | 198 | 9.0 | 15.0 | 0.00 | 0.20 | 0.20 | 70 | 1006.3 |
| 20260903011549 | 56 | 153 | 6.0 | 10.0 | 0.00 | 0.20 | 0.20 | 71 | 1005.9 |
| 20260903010048 | 57 | 130 | 3.0 | 9.0 | 0.00 | 0.20 | 0.20 | 72 | 1005.9 |
| 20260903004544 | 57 | 56 | 4.0 | 11.0 | 0.00 | 0.20 | 0.20 | 69 | 1004.3 |
| 20260903003042 | 57 | 202 | 6.0 | 16.0 | 0.02 | 0.20 | 0.20 | 66 | 1005.5 |
| 20260903001553 | 57 | 242 | 12.0 | 22.0 | 0.20 | 0.20 | 0.20 | 67 | 1005.9 |
| 20260903000049 | 57 | 248 | 15.0 | 27.0 | 0.20 | 0.20 | 0.20 | 68 | 1006.4 |
| 20260902234559 | 56 | 262 | 21.0 | 29.0 | 0.20 | 0.20 | 0.20 | 71 | 1005.8 |
| 20260902233044 | 57 | 276 | 19.0 | 42.0 | 0.18 | 0.18 | 0.18 | 69 | 1005.0 |
| 20260902231606 | 68 | 248 | 29.0 | 48.0 | 0.00 | 0.00 | 0.00 | 42 | 1005.2 |
| 20260902230057 | 81 | 212 | 5.0 | 13.0 | 0.00 | 0.00 | 0.00 | 29 | 1003.9 |
| 20260902224546 | 81 | 178 | 1.0 | 4.0 | 0.00 | 0.00 | 0.00 | 30 | 1002.8 |
| 20260902223051 | 80 | 186 | 4.0 | 8.0 | 0.00 | 0.00 | 0.00 | 29 | 1003.0 |
| 20260902221550 | 80 | 155 | 4.0 | 11.0 | 0.00 | 0.00 | 0.00 | 29 | 1003.2 |
| 20260902220057 | 81 | 0 | 2.0 | 9.0 | 0.00 | 0.00 | 0.00 | 29 | 1003.6 |
| 20260902214546 | 82 | 120 | 4.0 | 10.0 | 0.00 | 0.00 | 0.00 | 30 | 1003.8 |
| 20260902213046 | 81 | 142 | 4.0 | 15.0 | 0.00 | 0.00 | 0.00 | 30 | 1004.1 |
| 20260902211543 | 81 | 119 | 1.0 | 12.0 | 0.00 | 0.00 | 0.00 | 30 | 1004.3 |
| 20260902210042 | 81 | 186 | 1.0 | 12.0 | 0.00 | 0.00 | 0.00 | 29 | 1004.7 |
| 20260902204546 | 80 | 192 | 4.0 | 8.0 | 0.00 | 0.00 | 0.00 | 30 | 1005.1 |
| 20260902203046 | 80 | 132 | 4.0 | 8.0 | 0.00 | 0.00 | 0.00 | 31 | 1005.4 |
| 20260902201545 | 79 | 161 | 5.0 | 11.0 | 0.00 | 0.00 | 0.00 | 31 | 1005.3 |
| 20260902200048 | 78 | 142 | 2.0 | 9.0 | 0.00 | 0.00 | 0.00 | 34 | 1005.3 |
| 20260902194543 | 78 | 144 | 3.0 | 10.0 | 0.00 | 0.00 | 0.00 | 35 | 1005.6 |
| 20260902193045 | 77 | 191 | 3.0 | 7.0 | 0.00 | 0.00 | 0.00 | 36 | 1006.0 |
| 20260902191542 | 77 | 198 | 4.0 | 9.0 | 0.00 | 0.00 | 0.00 | 36 | 1005.9 |
| 20260902190052 | 77 | 189 | 4.0 | 8.0 | 0.00 | 0.00 | 0.00 | 35 | 1006.1 |
| 20260902184623 | 77 | 241 | 2.0 | 8.0 | 0.00 | 0.00 | 0.00 | 34 | 1006.5 |
| 20260902183045 | 77 | 184 | 4.0 | 10.0 | 0.00 | 0.00 | 0.00 | 35 | 1006.4 |
| 20260902181553 | 76 | 164 | 4.0 | 10.0 | 0.00 | 0.00 | 0.00 | 35 | 1006.5 |
| 20260902174548 | 75 | 213 | 6.0 | 10.0 | 0.00 | 0.00 | 0.00 | 38 | 1006.8 |
| 20260902173043 | 74 | 205 | 5.0 | 8.0 | 0.00 | 0.00 | 0.00 | 39 | 1006.8 |
| 20260902171558 | 74 | 187 | 4.0 | 9.0 | 0.00 | 0.00 | 0.00 | 39 | 1006.7 |
| 20260902170041 | 73 | 198 | 5.0 | 8.0 | 0.00 | 0.00 | 0.00 | 41 | 1006.7 |
| 20260902164547 | 71 | 191 | 0.0 | 3.0 | 0.00 | 0.00 | 0.00 | 42 | 1006.8 |
| 20260902163046 | 69 | 190 | 0.0 | 3.0 | 0.00 | 0.00 | 0.00 | 44 | 1006.7 |
| 20260902161551 | 68 | 0 | 0.0 | 4.0 | 0.00 | 0.00 | 0.00 | 46 | 1006.9 |
| 20260902160050 | 65 | 190 | 3.0 | 6.0 | 0.00 | 0.00 | 0.00 | 51 | 1007.2 |
| 20260902154546 | 61 | 179 | 3.0 | 7.0 | 0.00 | 0.00 | 0.00 | 56 | 1007.3 |
| 20260902153042 | 60 | 212 | 4.0 | 7.0 | 0.00 | 0.00 | 0.00 | 59 | 1007.5 |
| 20260902151551 | 59 | 194 | 3.0 | 5.0 | 0.00 | 0.00 | 0.00 | 60 | 1007.7 |
| 20260902150047 | 59 | 184 | 3.0 | 5.0 | 0.00 | 0.00 | 0.00 | 59 | 1007.6 |
| 20260902144543 | 58 | 184 | 1.0 | 3.0 | 0.00 | 0.00 | 0.00 | 60 | 1007.6 |
| 20260902143042 | 58 | 184 | 1.0 | 5.0 | 0.00 | 0.00 | 0.00 | 60 | 1007.9 |
| 20260902141548 | 57 | 184 | 2.0 | 5.0 | 0.00 | 0.00 | 0.00 | 61 | 1008.1 |